• In Portugal
  • List of Countries
  • For 7 days
  • Water Temperature
  • Satellite Maps
  • Weather Map
  • Weather Widgets
  • user-avatar
    Login

    Hourly Weather Utena

    Today, 24 February, Saturday

    Time Temperature Precipitation Wind Pressure Humidity
    00:00 -18°C° 0 mm 2 mps 759 mmHg 94%
    01:00 -18°C° 0 mm 2 mps 759 mmHg 95%
    02:00 -18°C° 0 mm 2 mps 760 mmHg 95%
    03:00 -18°C° 0 mm 2 mps 760 mmHg 95%
    04:00 -19°C° 0 mm 2 mps 760 mmHg 96%
    05:00 -21°C° 0 mm 3 mps 760 mmHg 96%
    06:00 -21°C° 0 mm 3 mps 761 mmHg 96%
    07:00 -21°C° 0 mm 3 mps 761 mmHg 96%
    08:00 -21°C° 0 mm 3 mps 762 mmHg 96%
    09:00 -19°C° 0 mm 3 mps 762 mmHg 93%
    10:00 -17°C° 0 mm 3 mps 762 mmHg 91%
    11:00 -17°C° 0 mm 4 mps 762 mmHg 88%
    12:00 -16°C° 0 mm 4 mps 762 mmHg 86%
    13:00 -15°C° 0 mm 4 mps 762 mmHg 84%
    14:00 -14°C° 0 mm 4 mps 762 mmHg 82%
    15:00 -14°C° 0 mm 4 mps 762 mmHg 83%
    16:00 -14°C° 0 mm 3 mps 762 mmHg 84%
    17:00 -14°C° 0 mm 3 mps 762 mmHg 85%
    18:00 -15°C° 0 mm 3 mps 763 mmHg 88%
    19:00 -16°C° 0 mm 3 mps 763 mmHg 90%
    20:00 -16°C° 0 mm 2 mps 763 mmHg 92%
    21:00 -17°C° 0 mm 2 mps 763 mmHg 94%
    22:00 -17°C° 0 mm 2 mps 763 mmHg 95%
    23:00 -18°C° 0 mm 2 mps 763 mmHg 96%

    Tomorrow, 25 February, Sunday

    Time Temperature Precipitation Wind Pressure Humidity
    00:00 -18°C° 0 mm 2 mps 764 mmHg 96%
    01:00 -19°C° 0 mm 2 mps 764 mmHg 97%
    02:00 -19°C° 0 mm 2 mps 764 mmHg 97%
    03:00 -19°C° 0 mm 2 mps 764 mmHg 97%
    04:00 -19°C° 0 mm 2 mps 764 mmHg 97%
    05:00 -19°C° 0 mm 2 mps 763 mmHg 97%
    06:00 -19°C° 0 mm 2 mps 764 mmHg 97%
    07:00 -19°C° 0 mm 2 mps 764 mmHg 97%
    08:00 -20°C° 0 mm 2 mps 764 mmHg 97%
    09:00 -19°C° 0 mm 2 mps 764 mmHg 93%
    10:00 -18°C° 0 mm 2 mps 764 mmHg 90%
    11:00 -18°C° 0 mm 3 mps 764 mmHg 87%
    12:00 -17°C° 0 mm 3 mps 764 mmHg 85%
    13:00 -16°C° 0 mm 3 mps 763 mmHg 84%
    14:00 -16°C° 0 mm 3 mps 763 mmHg 82%
    15:00 -16°C° 0 mm 3 mps 763 mmHg 84%
    16:00 -16°C° 0 mm 3 mps 763 mmHg 85%
    17:00 -15°C° 0 mm 2 mps 763 mmHg 87%
    18:00 -16°C° 0 mm 2 mps 763 mmHg 89%
    19:00 -17°C° 0 mm 2 mps 763 mmHg 91%
    20:00 -17°C° 0 mm 2 mps 763 mmHg 94%
    21:00 -17°C° 0 mm 2 mps 763 mmHg 94%
    22:00 -17°C° 0 mm 2 mps 763 mmHg 95%
    23:00 -15°C° 0 mm 1 mps 763 mmHg 96%

    Day after tomorrow, 26 February, Monday

    Time Temperature Precipitation Wind Pressure Humidity
    00:00 -15°C° 0 mm 1 mps 763 mmHg 96%
    01:00 -15°C° 0 mm 1 mps 762 mmHg 97%
    02:00 -15°C° 0 mm 1 mps 762 mmHg 97%
    03:00 -15°C° 0 mm 1 mps 762 mmHg 97%
    04:00 -17°C° 0 mm 2 mps 762 mmHg 97%
    05:00 -17°C° 0 mm 2 mps 762 mmHg 97%
    06:00 -17°C° 0 mm 2 mps 762 mmHg 97%
    07:00 -17°C° 0 mm 2 mps 762 mmHg 98%
    08:00 -17°C° 0 mm 2 mps 761 mmHg 98%
    09:00 -16°C° 0 mm 2 mps 761 mmHg 95%
    10:00 -15°C° 0 mm 2 mps 761 mmHg 92%
    11:00 -13°C° 0 mm 2 mps 761 mmHg 89%
    12:00 -13°C° 0.1 mm 2 mps 761 mmHg 86%
    13:00 -12°C° 0.1 mm 2 mps 761 mmHg 83%
    14:00 -10°C° 0.1 mm 2 mps 760 mmHg 80%
    15:00 -10°C° 0.1 mm 2 mps 760 mmHg 82%
    16:00 -10°C° 0.1 mm 1 mps 760 mmHg 83%
    17:00 -10°C° 0.1 mm 1 mps 760 mmHg 85%
    18:00 -11°C° 0 mm 1 mps 760 mmHg 87%
    19:00 -15°C° 0 mm 2 mps 760 mmHg 89%
    20:00 -16°C° 0 mm 2 mps 760 mmHg 91%
    21:00 -17°C° 0 mm 2 mps 760 mmHg 91%
    22:00 -18°C° 0 mm 2 mps 760 mmHg 91%
    23:00 -18°C° 0 mm 2 mps 760 mmHg 92%

    27 February, Tuesday

    Time Temperature Precipitation Wind Pressure Humidity
    00:00 -19°C° 0 mm 2 mps 761 mmHg 93%
    01:00 -20°C° 0 mm 2 mps 761 mmHg 93%
    02:00 -21°C° 0 mm 2 mps 761 mmHg 94%
    03:00 -21°C° 0 mm 2 mps 761 mmHg 95%
    04:00 -23°C° 0 mm 2 mps 761 mmHg 96%
    05:00 -24°C° 0 mm 3 mps 761 mmHg 97%
    06:00 -24°C° 0 mm 3 mps 762 mmHg 96%
    07:00 -24°C° 0 mm 3 mps 762 mmHg 96%
    08:00 -24°C° 0 mm 3 mps 763 mmHg 95%
    09:00 -23°C° 0 mm 3 mps 763 mmHg 92%
    10:00 -22°C° 0 mm 4 mps 764 mmHg 90%
    11:00 -20°C° 0 mm 4 mps 764 mmHg 87%
    12:00 -19°C° 0 mm 4 mps 764 mmHg 84%
    13:00 -18°C° 0 mm 4 mps 764 mmHg 82%
    14:00 -17°C° 0 mm 4 mps 764 mmHg 79%
    15:00 -17°C° 0 mm 4 mps 764 mmHg 81%
    16:00 -18°C° 0 mm 4 mps 764 mmHg 82%
    17:00 -18°C° 0 mm 4 mps 764 mmHg 83%
    18:00 -19°C° 0 mm 4 mps 765 mmHg 85%
    19:00 -20°C° 0 mm 4 mps 765 mmHg 87%
    20:00 -22°C° 0 mm 4 mps 765 mmHg 89%
    21:00 -22°C° 0 mm 4 mps 766 mmHg 89%
    22:00 -22°C° 0 mm 4 mps 766 mmHg 90%
    23:00 -22°C° 0 mm 4 mps 766 mmHg 90%

    28 February, Wednesday

    Time Temperature Precipitation Wind Pressure Humidity
    00:00 -23°C° 0 mm 4 mps 766 mmHg 90%
    01:00 -23°C° 0 mm 4 mps 766 mmHg 91%
    02:00 -23°C° 0 mm 4 mps 766 mmHg 91%
    03:00 -23°C° 0 mm 4 mps 765 mmHg 91%
    04:00 -24°C° 0 mm 5 mps 765 mmHg 91%
    05:00 -24°C° 0 mm 5 mps 765 mmHg 91%
    06:00 -24°C° 0 mm 5 mps 765 mmHg 90%
    07:00 -24°C° 0 mm 5 mps 765 mmHg 89%
    08:00 -24°C° 0 mm 5 mps 765 mmHg 89%
    09:00 -22°C° 0 mm 5 mps 764 mmHg 87%
    10:00 -22°C° 0 mm 5 mps 764 mmHg 86%
    11:00 -22°C° 0 mm 6 mps 764 mmHg 85%
    12:00 -21°C° 0 mm 6 mps 763 mmHg 84%
    13:00 -20°C° 0 mm 6 mps 763 mmHg 84%
    14:00 -18°C° 0 mm 6 mps 762 mmHg 84%
    15:00 -18°C° 0.1 mm 6 mps 762 mmHg 85%
    16:00 -18°C° 0.1 mm 6 mps 761 mmHg 86%
    17:00 -18°C° 0.1 mm 6 mps 761 mmHg 87%
    18:00 -18°C° 0.1 mm 5 mps 761 mmHg 87%
    19:00 -19°C° 0.1 mm 5 mps 761 mmHg 88%
    20:00 -19°C° 0.1 mm 5 mps 761 mmHg 88%
    21:00 -19°C° 0.1 mm 5 mps 760 mmHg 89%
    22:00 -19°C° 0.1 mm 5 mps 760 mmHg 90%
    23:00 -18°C° 0.1 mm 4 mps 760 mmHg 90%

    1 March, Thursday

    Time Temperature Precipitation Wind Pressure Humidity
    00:00 -18°C° 0.1 mm 4 mps 760 mmHg 90%
    01:00 -18°C° 0.1 mm 4 mps 760 mmHg 91%
    02:00 -18°C° 0.1 mm 4 mps 759 mmHg 91%
    03:00 -17°C° 0.1 mm 3 mps 759 mmHg 92%
    04:00 -17°C° 0.1 mm 3 mps 759 mmHg 92%
    05:00 -17°C° 0.1 mm 3 mps 758 mmHg 92%
    06:00 -18°C° 0.1 mm 3 mps 758 mmHg 93%
    07:00 -18°C° 0.1 mm 3 mps 758 mmHg 93%
    08:00 -18°C° 0.1 mm 3 mps 757 mmHg 93%
    09:00 -17°C° 0 mm 3 mps 757 mmHg 91%
    10:00 -16°C° 0 mm 3 mps 757 mmHg 89%
    11:00 -15°C° 0 mm 3 mps 756 mmHg 87%
    12:00 -15°C° 0 mm 3 mps 756 mmHg 86%
    13:00 -14°C° 0 mm 3 mps 755 mmHg 86%
    14:00 -12°C° 0 mm 2 mps 755 mmHg 85%
    15:00 -13°C° 0.1 mm 2 mps 754 mmHg 87%
    16:00 -13°C° 0.1 mm 2 mps 754 mmHg 89%
    17:00 -13°C° 0.1 mm 2 mps 754 mmHg 90%
    18:00 -14°C° 0 mm 2 mps 754 mmHg 92%
    19:00 -15°C° 0 mm 2 mps 753 mmHg 94%
    20:00 -13°C° 0 mm 1 mps 753 mmHg 96%
    21:00 -14°C° 0 mm 1 mps 753 mmHg 97%
    22:00 -14°C° 0 mm 1 mps 753 mmHg 97%
    23:00 -15°C° 0 mm 1 mps 753 mmHg 98%
    Show more